This is the latest recevied weather packets stored in our database for station/object KF7PIZ. If no packets are shown the sender has not sent any weather packets the latest 10 day(s).
| Time | Temp. | Humidity | Pressure | Rain* | Wind** | Luminosity | Snow |
|---|---|---|---|---|---|---|---|
| 1777721354 | 7.78° C | 58% | 1016.3 hPa | 0 mm | - | 0 W/m² | - |
| 1777721051 | 7.78° C | 57% | 1016.5 hPa | 0 mm | - | 0 W/m² | - |
| 1777720749 | 7.78° C | 59% | 1016.3 hPa | 0 mm | - | 0 W/m² | - |
| 1777720445 | 7.78° C | 56% | 1016.5 hPa | 0 mm | - | 0 W/m² | - |
| 1777720143 | 7.78° C | 54% | 1016.3 hPa | 0 mm | - | 0 W/m² | - |
| 1777719841 | 7.78° C | 51% | 1016.2 hPa | 0 mm | - | 0 W/m² | - |
| 1777719538 | 7.78° C | 53% | 1016.2 hPa | 0 mm | - | 0 W/m² | - |
| 1777719235 | 7.78° C | 53% | 1016.2 hPa | 0 mm | - | 0 W/m² | - |
| 1777718933 | 8.33° C | 53% | 1016.5 hPa | 0 mm | - | 0 W/m² | - |
| 1777718630 | 8.33° C | 53% | 1016.3 hPa | 0 mm | - | 0 W/m² | - |
| 1777718327 | 8.33° C | 52% | 1016.4 hPa | 0 mm | - | 0 W/m² | - |
| 1777718024 | 8.89° C | 53% | 1016 hPa | 0 mm | - | 0 W/m² | - |
| 1777717721 | 8.89° C | 52% | 1016.1 hPa | 0 mm | - | 0 W/m² | - |
| 1777717418 | 8.89° C | 52% | 1016.3 hPa | 0 mm | - | 0 W/m² | - |
| 1777717115 | 8.89° C | 53% | 1016.3 hPa | 0 mm | - | 0 W/m² | - |
| 1777716813 | 8.89° C | 54% | 1016.1 hPa | 0 mm | - | 0 W/m² | - |
| 1777716512 | 8.33° C | 54% | 1016.2 hPa | 0 mm | - | 0 W/m² | - |
| 1777716211 | 8.89° C | 53% | 1016.1 hPa | 0 mm | - | 0 W/m² | - |
| 1777715907 | 8.89° C | 52% | 1016.3 hPa | 0 mm | - | 0 W/m² | - |
| 1777715605 | 8.89° C | 52% | 1016.3 hPa | 0 mm | - | 0 W/m² | - |
| 1777715303 | 8.89° C | 52% | 1016.2 hPa | 0 mm | - | 0 W/m² | - |
| 1777715000 | 8.89° C | 52% | 1016.4 hPa | 0 mm | - | 0 W/m² | - |
| 1777714698 | 8.89° C | 52% | 1016.4 hPa | 0 mm | - | 0 W/m² | - |
| 1777714396 | 8.89° C | 52% | 1016.4 hPa | 0 mm | - | 0 W/m² | - |
| 1777714094 | 9.44° C | 51% | 1016.3 hPa | 0 mm | - | 0 W/m² | - |
* Rain latest hour (hover to see other rain measurements)
** Current wind speed in m/s (hover to see current wind gust speed)